TimeAKDT,TemperatureF,Dew PointF,Humidity,Sea Level PressureIn,VisibilityMPH,Wind Direction,Wind SpeedMPH,Gust SpeedMPH,PrecipitationIn,Events,Conditions,WindDirDegrees,DateUTC
12:53 AM,-0.0,-9.0,66,29.64,10.0,NW,11.5,-,N/A,,Scattered Clouds,320,2013-04-10 08:53:00
1:53 AM,-0.0,-9.0,66,29.65,10.0,North,16.1,-,N/A,,Overcast,360,2013-04-10 09:53:00
2:53 AM,-0.0,-8.0,69,29.66,10.0,NNW,15.0,-,N/A,,Overcast,340,2013-04-10 10:53:00
3:53 AM,-0.0,-8.0,69,29.68,10.0,NNW,13.8,-,N/A,,Overcast,330,2013-04-10 11:53:00
4:53 AM,-0.9,-9.0,69,29.67,10.0,NNW,13.8,-,N/A,,Overcast,330,2013-04-10 12:53:00
5:53 AM,-0.9,-9.9,66,29.66,10.0,NNW,15.0,-,N/A,,Overcast,330,2013-04-10 13:53:00
6:53 AM,-2.0,-11.0,66,29.68,10.0,NNW,12.7,-,N/A,,Mostly Cloudy,330,2013-04-10 14:53:00
7:53 AM,-4.0,-11.0,72,29.69,10.0,NW,5.8,-,N/A,,Scattered Clouds,310,2013-04-10 15:53:00
8:53 AM,-2.9,-11.9,65,29.70,10.0,NNW,4.6,-,N/A,,Scattered Clouds,340,2013-04-10 16:53:00
9:53 AM,-0.4,-11.2,60,29.71,10.0,North,6.9,-,N/A,,Scattered Clouds,350,2013-04-10 17:53:00
10:53 AM,1.0,-9.0,63,29.74,10.0,NW,4.6,-,N/A,,Scattered Clouds,310,2013-04-10 18:53:00
11:53 AM,3.0,-8.0,60,29.76,10.0,NE,3.5,-,N/A,,Scattered Clouds,50,2013-04-10 19:53:00
12:53 PM,3.9,-9.0,55,29.78,10.0,East,4.6,-,N/A,,Scattered Clouds,90,2013-04-10 20:53:00
1:53 PM,7.0,-7.1,53,29.81,10.0,Calm,Calm,-,N/A,,Scattered Clouds,0,2013-04-10 21:53:00
2:53 PM,6.1,-7.1,55,29.86,10.0,East,4.6,-,N/A,,Scattered Clouds,100,2013-04-10 22:53:00
3:53 PM,8.1,-4.0,58,29.86,10.0,NE,3.5,-,N/A,,Scattered Clouds,50,2013-04-10 23:53:00
4:53 PM,9.0,-4.0,56,29.87,10.0,Variable,4.6,-,N/A,,Mostly Cloudy,0,2013-04-11 00:53:00
5:53 PM,7.0,-0.9,70,29.91,10.0,SSE,5.8,-,N/A,,Mostly Cloudy,160,2013-04-11 01:53:00
6:53 PM,7.0,-2.9,64,29.93,10.0,SSE,3.5,-,N/A,,Mostly Cloudy,160,2013-04-11 02:53:00
7:53 PM,7.0,-2.9,64,29.94,10.0,South,4.6,-,N/A,,Mostly Cloudy,190,2013-04-11 03:53:00
8:53 PM,8.1,-2.9,61,29.97,10.0,West,3.5,-,N/A,,Mostly Cloudy,260,2013-04-11 04:53:00
9:53 PM,7.0,-2.9,64,29.98,10.0,NE,8.1,-,N/A,,Mostly Cloudy,40,2013-04-11 05:53:00
10:53 PM,6.1,-4.0,63,30.02,10.0,NE,9.2,-,N/A,,Clear,50,2013-04-11 06:53:00
11:53 PM,1.9,-6.0,69,30.04,10.0,West,5.8,-,N/A,,Mostly Cloudy,270,2013-04-11 07:53:00